Regional Weather Roundup
Issued by NWS

Home | Current Version | Previous Version | Text Only | Print | Product List | Glossary On
Versions: 1 2 3 4 5 6 7 8 9 10 11 12 13 14 15 16 17 18 19 20 21 22 23 24 25 26 27 28 29 30 31 32 33 34 35 36 37 38 39 40 41 42 43 44 45 46 47 48 49 50
000
ASUS43 KLOT 230003
RWRIL

ILLINOIS REGIONAL WEATHER ROUNDUP
NATIONAL WEATHER SERVICE CHICAGO/ROMEOVILLE IL
600 PM CST WED FEB 22 2017

NOTE: "FAIR" INDICATES FEW OR NO CLOUDS BELOW 12,000 FEET WITH NO
SIGNIFICANT WEATHER AND/OR OBSTRUCTIONS TO VISIBILITY.

* THESE STATIONS ARE NOT UNDER NWS QUALITY CONTROL. THEY ALSO MAY NOT
  REPORT WEATHER SUCH AS PRECIPITATION OR FOG.

ILZ001-002-007-009-015-016-024-230100-
NORTHWEST ILLINOIS

CITY           SKY/WX    TMP DP  RH WIND       PRES   REMARKS
MOLINE         CLEAR     66  52  60 S15       29.57F
STERLING*      CLEAR     62  53  72 VRB6      29.60R
SAVANNA*       CLEAR     62  47  59 S12       29.57R
$$

ILZ003-004-008-010-011-017-018-230100-
NORTH CENTRAL ILLINOIS

CITY           SKY/WX    TMP DP  RH WIND       PRES   REMARKS
ROCKFORD       CLEAR     62  50  64 SW12      29.60R
6HR MIN TEMP:  62; 6HR MAX TEMP:  70;

FREEPORT*      CLEAR     60  54  79 S14G21    29.59R
ROCHELLE*      CLEAR     59  52  78 S13       29.60R
DE KALB*       CLEAR     59  53  80 S15       29.60F
PERU*          CLEAR     61  53  72 S20       29.62R
$$

ILZ005-006-012>014-019>023-230100-
NORTHEAST ILLINOIS

CITY           SKY/WX    TMP DP  RH WIND       PRES   REMARKS
CHICAGO-OHARE  CLEAR     65  53  65 S16G26    29.60F
6HR MIN TEMP:  61; 6HR MAX TEMP:  68;

CHICAGO-MIDWAY CLEAR     65  54  67 S13       29.62F
6HR MIN TEMP:  59; 6HR MAX TEMP:  67;

AURORA         CLEAR     63  54  72 S14       29.60F
6HR MIN TEMP:  61; 6HR MAX TEMP:  68;

LANSING*       CLEAR     61  56  86 S9        29.66S
JOLIET*        CLEAR     65  57  76 S9        29.63F
WAUKEGAN       CLEAR     63  50  62 S15       29.57F
6HR MIN TEMP:  63; 6HR MAX TEMP:  68;

DUPAGE AIRPORT CLEAR     61  52  72 S14       29.59F
6HR MIN TEMP:  61; 6HR MAX TEMP:  67;

KANKAKEE*      CLEAR     62  55  78 S14       29.67F
WHEELING       CLEAR     64  51  62 S14       29.60F
6HR MIN TEMP:  63; 6HR MAX TEMP:  67;

MORRIS*        CLEAR     63  55  75 S16       29.61F
ROMEOVILLE*    CLEAR     62  57  84 S13       29.62F
NORTHERLY ISL    N/A     65  53  65 S14         N/A
$$

LMZ740>746-230100-
SOUTHERN LAKE MICHIGAN

STATION/POSITION SKY/WX   TEMP    WIND        PRES    VSBY  WAVE
                          AIR SEA DIR/SP/G                  HT/PER
                          (F)     (DEG/KT/KT) (MB)    (MI)  (FT/S)
HARRISON CRIB              63     190/ 22/ 24   N/A
BURNHAM HARBOR             64     170/ 12/ 19   N/A
CALUMET HARBOR             64     170/  8/ 12 1003.4F
BURNS HARBOR               63     180/ 11/ 14 1005.1F
MICHIGAN CITY              63     150/ 11/ 13   N/A
$$

ILZ025>027-034>036-040-047-049-050-058-095>099-230100-
WEST-CENTRAL ILLINOIS

CITY           SKY/WX    TMP DP  RH WIND       PRES   REMARKS
QUINCY         CLEAR     59  54  83 S10       29.66R
GALESBURG*     CLEAR     62  54  74 S12       29.62S
MACOMB*        CLEAR     64  50  61 SW17      29.66R
JACKSONVILLE*  CLEAR     58  54  86 S8        29.66F
PITTSFIELD*    CLEAR     60  56  85 S5        29.68R
$$

ILZ028>032-037-038-041>044-048-051>054-059>061-230100-
CENTRAL ILLINOIS

CITY           SKY/WX    TMP DP  RH WIND       PRES   REMARKS
PONTIAC        CLEAR     63  58  84 S17       29.66S
BLOOMINGTON    CLEAR     59  54  83 S15       29.67F
DECATUR        CLOUDY    65  54  67 S10       29.70F
PEORIA         CLEAR     60  55  83 S16       29.64S HAZE
6HR MIN TEMP:  58; 6HR MAX TEMP:  66;

LACON*         CLEAR     61  55  78 SW12G18   29.62S
LINCOLN*       CLEAR     61  57  88 S9        29.67F
SPRINGFIELD    CLOUDY    61  55  81 S10       29.68F
6HR MIN TEMP:  57; 6HR MAX TEMP:  64;

TAYLORVILLE    PTCLDY    62  56  81 S5        29.70F
6HR MIN TEMP:  60; 6HR MAX TEMP:  69;

$$

ILZ033-039-045-046-055>057-062-063-230100-
EAST-CENTRAL ILLINOIS

CITY           SKY/WX    TMP DP  RH WIND       PRES   REMARKS
CHAMPAIGN      CLEAR     62  52  69 S12       29.71F
RANTOUL*       CLEAR     65  55  70 S8        29.69F
MATTOON        PTCLDY    64  57  78 S8        29.73S
PARIS*         CLOUDY    64  56  75 S10       29.75F
$$

ILZ079-100>102-230100-
SOUTHWEST ILLINOIS

CITY           SKY/WX    TMP DP  RH WIND       PRES   REMARKS
ALTON          PTCLDY    63  55  77 VRB5      29.71F
BELLEVILLE     PTCLDY    69  54  58 VRB6      29.70S
CAHOKIA*       CLOUDY    71  51  49 S8        29.70S
SPARTA*        MOCLDY    68  54  60 S14       29.75S
$$

ILZ064>066-069>071-074>076-080>082-084>086-088>090-092>094-230100-
SOUTH-CENTRAL ILLINOIS

CITY           SKY/WX    TMP DP  RH WIND       PRES   REMARKS
CARBONDALE     PTCLDY    67  55  65 SW18G24   29.77S
6HR MIN TEMP:  66; 6HR MAX TEMP:  73;

CAIRO*         CLEAR     65  58  77 SW3       29.79S
EFFINGHAM*     MOCLDY    67  55  66 S8        29.76S
MARION         PTCLDY    68  55  64 S7        29.78S
MT. VERNON     CLOUDY    65  54  67 SW9       29.76S
CENTRALIA*     CLOUDY    67  56  67 S10       29.74S
SALEM*         MOCLDY    69  53  57 S7        29.75S
METROPOLIS*    MOCLDY    67  57  71 CALM      29.80S
$$

ILZ067-068-072-073-078-083-087-091-230100-
SOUTHEAST ILLINOIS

CITY           SKY/WX    TMP DP  RH WIND       PRES   REMARKS
LAWRENCEVILLE  CLOUDY    63  55  75 S10       29.78S
FLORA*         CLOUDY    67  56  66 S10       29.76S
FAIRFIELD*     CLOUDY    65  55  70 S3        29.76S
HARRISBURG*    PTCLDY    66  56  70 S6        29.79S
ROBINSON*      PTCLDY    61  54  76 S6        29.78S
CARMI*         CLOUDY    62  56  82 S8        29.78S
$$

ABBREVIATIONS USED IN REMARKS
   TC - TEMPERATURE IN CELSIUS
  WCI - WIND CHILL INDEX
   HX - HEAT INDEX
  VSB - VISIBILITY
$$





USA.gov is the U.S. government's official web portal to all federal, state and local government web resources and services.